DateTimeUTC,F1_A11,F1_S11,BsB_S11,BsG_S11,BsR_S11,BbsB_S11,BbsG_S11,BbsR_S11,BaB_A11,BaG_A11,BaR_A11,Tu_S11,T_S11,Uu_S11,U_S11,P_S11,T1_A11
2021-09-30T07:00:00Z,00000200,21000000,,,,,,,-000.20,-000.04,-000.00,17.2,24.2,00.9,00.6,0669.5,31.0
2021-09-30T07:01:00Z,00000200,21000000,,,,,,,0000.15,-000.02,-000.17,17.2,24.2,00.9,00.6,0669.5,31.0
2021-09-30T07:02:00Z,00000200,21000000,,,,,,,0000.03,-000.10,0000.34,17.2,24.2,00.9,00.6,0669.5,31.0
2021-09-30T07:03:00Z,00000200,61000000,,,,,,,0000.20,0000.39,0000.18,17.2,24.2,00.9,00.6,0669.5,31.0
2021-09-30T07:04:00Z,00000200,41000000,0000.65,0000.28,0000.35,0000.19,-000.02,0000.19,0001.24,0000.93,0000.45,17.3,24.0,01.0,00.7,0670.4,31.0
2021-09-30T07:05:00Z,00000200,01000000,0000.30,0000.01,0000.21,0000.47,0000.33,0000.01,0001.08,0000.70,0000.94,17.3,24.0,01.1,00.7,0670.5,31.0
2021-09-30T07:06:00Z,00000200,01000000,0000.46,0000.49,0000.46,0000.03,-000.14,-000.14,0002.72,0002.82,0001.77,17.3,23.9,01.0,00.7,0670.5,31.0
2021-09-30T07:07:00Z,00000200,01000000,0000.41,0000.72,0000.46,-000.19,0000.49,0000.54,0010.87,0009.81,0007.10,17.3,23.9,01.1,00.7,0670.5,31.0
2021-09-30T07:08:00Z,00000200,01000000,0001.34,0000.81,0000.32,0000.60,0000.41,0000.26,0024.86,0022.07,0016.85,17.2,23.9,01.1,00.7,0670.5,31.0
2021-09-30T07:09:00Z,00000200,01000000,0001.33,0000.95,0000.29,-000.19,0000.08,0000.18,0018.21,0016.34,0012.48,17.2,23.8,01.1,00.7,0670.5,31.0
2021-09-30T07:10:00Z,00000200,01000000,0000.28,0000.35,0000.40,0000.59,-000.05,0000.25,0008.69,0008.05,0006.04,17.2,23.8,01.1,00.7,0670.5,31.0
2021-09-30T07:11:00Z,00000200,01000000,0000.19,0000.48,-000.00,-000.17,-000.00,-000.25,0002.31,0002.04,0001.68,17.3,23.9,01.1,00.7,0670.5,31.0
2021-09-30T07:12:00Z,00000200,01000000,-000.21,0000.46,-000.30,-000.20,0000.18,-000.50,0000.45,0000.36,0000.38,17.4,23.9,01.1,00.7,0670.5,31.0
2021-09-30T07:13:00Z,00000200,01000000,-000.23,0000.62,0000.35,0000.34,-000.02,0000.24,0000.04,0000.56,0000.09,17.5,23.9,01.1,00.8,0670.5,31.0
2021-09-30T07:14:00Z,00000200,01000000,-000.32,0000.12,-000.13,-000.09,-000.09,-000.10,0000.58,-000.05,0000.16,17.5,24.0,01.2,00.8,0670.5,31.0
2021-09-30T07:15:00Z,00000200,01000000,0000.47,0000.30,0000.10,0000.62,0000.04,0000.10,-000.17,0000.05,-000.03,17.6,24.0,01.1,00.8,0670.5,31.0
2021-09-30T07:16:00Z,00000200,01000000,-000.05,-000.06,-000.04,0000.21,0000.08,-000.15,0000.20,0000.04,0000.19,17.5,24.0,01.1,00.7,0670.5,31.0
2021-09-30T07:17:00Z,00000200,01000000,0000.44,0000.29,0000.02,0000.17,-000.06,-000.19,0000.02,0000.29,-000.29,17.5,24.0,01.1,00.8,0670.6,31.0
2021-09-30T07:18:00Z,00000200,01000000,0000.42,0000.14,-000.04,0000.07,0000.07,0000.02,0000.04,-000.36,0000.01,17.5,24.0,01.1,00.8,0670.6,31.0
2021-09-30T07:19:00Z,00000200,01000000,0000.90,0000.11,0000.23,0000.42,0000.13,0000.21,0000.03,0000.28,0000.02,17.5,23.9,01.1,00.7,0670.6,31.0
2021-09-30T07:20:00Z,00000200,01000000,-000.09,0000.37,-000.13,0000.76,-000.15,0000.07,0000.20,0000.06,0000.13,17.5,23.9,01.1,00.8,0670.6,31.0
2021-09-30T07:21:00Z,00000200,01000000,0000.80,0000.23,0000.21,0000.91,0000.05,0000.31,0000.18,0000.04,-000.14,17.4,23.9,01.1,00.7,0670.6,31.0
2021-09-30T07:22:00Z,00000200,01000000,-000.23,0000.33,0000.22,0000.05,0000.01,0000.02,0000.02,0000.26,0000.43,17.4,23.9,01.1,00.7,0670.6,31.0
2021-09-30T07:23:00Z,00000200,01000000,0000.34,0000.55,0000.11,0000.25,0000.00,-000.09,0000.07,0000.02,-000.28,17.4,23.9,01.1,00.7,0670.6,31.0
2021-09-30T07:24:00Z,00000200,01000000,0000.11,0000.32,-000.25,-000.46,0000.05,-000.10,0000.43,0000.10,0000.57,17.4,23.9,01.2,00.8,0670.6,31.0
2021-09-30T07:25:00Z,00000200,01000000,0000.33,-000.07,0000.15,-000.08,0000.10,0000.13,-000.19,0000.20,0000.03,17.4,23.9,01.1,00.8,0670.6,31.0
2021-09-30T07:26:00Z,00000200,01000000,0000.12,0000.15,-000.03,-000.02,-000.12,-000.20,0000.35,-000.03,0000.32,17.4,23.9,01.1,00.8,0670.6,31.0
2021-09-30T07:27:00Z,00000200,01000000,0000.09,0000.43,0000.24,0000.12,-000.08,0000.13,0000.38,0000.10,-000.02,17.5,23.9,01.2,00.8,0670.6,31.0
2021-09-30T07:28:00Z,00000200,01000000,0000.27,0000.15,0000.19,0000.29,0000.06,0000.15,-000.32,0000.40,0000.04,17.5,24.0,01.2,00.8,0670.6,31.0
2021-09-30T07:29:00Z,00000200,01000000,0000.31,0000.48,-000.26,0000.23,-000.20,0000.25,0000.24,0000.02,-000.21,17.6,24.0,01.1,00.8,0670.6,31.0
2021-09-30T07:30:00Z,00000200,01000000,0000.66,0000.16,0000.23,0000.38,0000.03,0000.04,0001.58,0001.13,0001.16,17.6,24.0,01.2,00.8,0670.6,31.0
2021-09-30T07:31:00Z,00000200,01000000,-000.19,0000.08,0000.13,0000.39,0000.09,0000.39,0001.26,0001.21,0000.89,17.6,24.0,01.1,00.7,0670.7,31.0
2021-09-30T07:32:00Z,00000200,01000000,-000.08,0000.10,0000.08,0000.15,0000.34,0000.35,-000.17,-000.06,0000.01,17.5,24.0,01.2,00.8,0670.6,31.0
2021-09-30T07:33:00Z,00000200,01000000,-000.34,0000.34,-000.20,0000.28,0000.19,0000.08,0000.70,0000.89,0000.56,17.5,24.0,01.2,00.8,0670.6,31.0
2021-09-30T07:34:00Z,00000200,01000000,0000.21,-000.07,0000.35,0000.09,0000.17,0000.29,0001.26,0000.90,0000.47,17.5,24.0,01.2,00.8,0670.6,31.0
2021-09-30T07:35:00Z,00000200,01000000,-000.19,0000.11,0000.21,-000.19,-000.12,0000.37,-000.35,0000.09,0000.02,17.5,23.9,01.2,00.8,0670.6,31.0
2021-09-30T07:36:00Z,00000200,01000000,0000.29,0000.17,0000.22,0000.04,-000.01,0000.48,0000.34,0000.06,0000.38,17.4,23.9,01.3,00.8,0670.6,30.9
2021-09-30T07:37:00Z,00000200,01000000,-000.14,0000.36,0000.24,0000.05,0000.12,-000.09,0001.46,0000.87,0000.64,17.4,23.9,01.2,00.8,0670.6,31.0
2021-09-30T07:38:00Z,00000200,01000000,0000.33,0000.34,0000.32,0000.03,0000.26,0000.23,0004.76,0004.59,0003.62,17.4,23.9,01.2,00.8,0670.5,31.0
2021-09-30T07:39:00Z,00000200,01000000,0000.70,0000.12,0000.09,-000.45,-000.07,0000.41,0002.41,0002.04,0001.53,17.4,23.9,01.3,00.8,0670.5,31.0
2021-09-30T07:40:00Z,00000200,01000000,-000.15,0000.26,0000.26,-000.26,0000.16,0000.12,0000.22,0000.01,-000.36,17.4,23.8,01.3,00.9,0670.6,31.0
2021-09-30T07:41:00Z,00000200,01000000,0000.65,0000.13,0000.22,-000.70,0000.19,0000.07,0000.09,0000.21,0000.23,17.4,23.9,01.3,00.9,0670.6,31.0
2021-09-30T07:42:00Z,00000200,01000000,-000.05,-000.28,-000.08,0000.57,-000.12,-000.12,-000.25,0000.32,0000.28,17.5,23.9,01.3,00.9,0670.6,31.0
2021-09-30T07:43:00Z,00000200,01000000,0001.08,0000.36,0000.32,0000.01,0000.01,0000.48,0000.37,-000.24,0000.10,17.5,23.9,01.3,00.9,0670.6,31.0
2021-09-30T07:44:00Z,00000200,01000000,-000.18,0000.30,-000.13,0000.23,-000.10,0000.33,-000.13,-000.06,-000.06,17.6,24.0,01.3,00.9,0670.6,31.0
2021-09-30T07:45:00Z,00000200,01000000,0000.26,0000.08,-000.29,0000.19,-000.01,-000.03,0000.17,0000.49,0000.32,17.6,24.0,01.3,00.9,0670.7,31.0
2021-09-30T07:46:00Z,00000200,01000000,0000.07,0000.44,0000.11,0000.53,0000.10,0000.07,0002.90,0002.26,0001.52,17.6,24.0,01.3,00.9,0670.7,31.0
2021-09-30T07:47:00Z,00000200,01000000,-000.42,0000.12,0000.04,-000.09,0000.22,-000.00,0000.16,0000.02,0000.14,17.5,23.9,01.3,00.9,0670.7,31.0
2021-09-30T07:48:00Z,00000200,01000000,0001.30,-000.19,0000.05,0000.27,0000.05,0000.03,-000.12,0000.09,-000.08,17.5,23.9,01.2,00.8,0670.7,31.0
2021-09-30T07:49:00Z,00000200,01000000,0000.43,0000.30,0000.05,0000.15,0000.22,0000.07,-000.11,0000.03,-000.04,17.5,23.9,01.2,00.8,0670.7,31.0
2021-09-30T07:50:00Z,00000200,01000000,-000.09,0000.22,-000.19,0000.31,-000.21,-000.09,0000.51,0000.47,0000.22,17.4,23.9,01.2,00.8,0670.7,30.9
2021-09-30T07:51:00Z,00000200,01000000,-000.05,0000.03,0000.23,0000.74,-000.00,-000.02,-000.13,-000.18,-000.05,17.4,23.9,01.2,00.8,0670.7,31.0
2021-09-30T07:52:00Z,00000200,01000000,-000.41,-000.36,-000.11,0000.10,0000.37,0000.06,0000.17,-000.33,0000.11,17.4,23.9,01.3,00.9,0670.7,31.0
2021-09-30T07:53:00Z,00000200,01000000,-000.09,0000.45,-000.20,0000.24,-000.04,0000.10,-000.09,0000.18,-000.31,17.4,23.9,01.3,00.8,0670.7,31.0
2021-09-30T07:54:00Z,00000200,01000000,-000.44,0000.15,0000.15,-000.16,-000.01,0000.09,0000.02,0000.27,0000.26,17.4,23.8,01.3,00.9,0670.7,31.0
2021-09-30T07:55:00Z,00000200,01000000,0000.14,0000.07,-000.01,0000.11,0000.10,0000.21,0000.35,0000.10,0000.44,17.4,23.8,01.3,00.9,0670.7,31.0
2021-09-30T07:56:00Z,00000200,01000000,0000.38,0000.14,0000.01,-000.40,-000.35,-000.08,0000.28,0000.27,0000.16,17.4,23.8,01.3,00.9,0670.7,31.0
2021-09-30T07:57:00Z,00000200,40000000,,,,,,,0000.05,-000.22,-000.08,17.5,23.9,01.5,01.0,0670.9,31.0
2021-09-30T07:58:00Z,00000200,61000000,,,,,,,0000.15,0000.03,0000.08,17.3,24.1,01.2,00.8,0669.8,31.0
2021-09-30T07:59:00Z,00000200,21000000,,,,,,,0000.03,0000.55,0000.30,17.3,24.2,01.2,00.8,0669.8,31.0
